owner,sensor,date,latitude,longitude,relative_humidity,qcFlag 
DISL,ioos:station:DISL:PPTA:1,2017-02-01T00:00:00Z,30.2791,-87.5561,71.22,1111122 
DISL,ioos:station:DISL:PPTA:1,2017-02-01T00:30:00Z,30.2791,-87.5561,70.25,1111122 
DISL,ioos:station:DISL:PPTA:1,2017-02-01T01:00:00Z,30.2791,-87.5561,68.75,1111122 
DISL,ioos:station:DISL:PPTA:1,2017-02-01T01:30:00Z,30.2791,-87.5561,70.59,1111122 
DISL,ioos:station:DISL:PPTA:1,2017-02-01T02:00:00Z,30.2791,-87.5561,70.53,1111122 
DISL,ioos:station:DISL:PPTA:1,2017-02-01T02:30:00Z,30.2791,-87.5561,70.97,1111122 
DISL,ioos:station:DISL:PPTA:1,2017-02-01T03:00:00Z,30.2791,-87.5561,70.18,1111122 
DISL,ioos:station:DISL:PPTA:1,2017-02-01T03:30:00Z,30.2791,-87.5561,70.36,1111122 
DISL,ioos:station:DISL:PPTA:1,2017-02-01T04:00:00Z,30.2791,-87.5561,70.7,1111122 
DISL,ioos:station:DISL:PPTA:1,2017-02-01T04:30:00Z,30.2791,-87.5561,70.36,1111122 
DISL,ioos:station:DISL:PPTA:1,2017-02-01T05:00:00Z,30.2791,-87.5561,70.42,1111122 
DISL,ioos:station:DISL:PPTA:1,2017-02-01T05:30:00Z,30.2791,-87.5561,70.97,1111122 
DISL,ioos:station:DISL:PPTA:1,2017-02-01T06:00:00Z,30.2791,-87.5561,71.24,1111122 
DISL,ioos:station:DISL:PPTA:1,2017-02-01T06:30:00Z,30.2791,-87.5561,73.46,1111122 
DISL,ioos:station:DISL:PPTA:1,2017-02-01T07:00:00Z,30.2791,-87.5561,74.32,1111122 
DISL,ioos:station:DISL:PPTA:1,2017-02-01T07:30:00Z,30.2791,-87.5561,74.77,1111122 
DISL,ioos:station:DISL:PPTA:1,2017-02-01T08:00:00Z,30.2791,-87.5561,76.69,1111122 
DISL,ioos:station:DISL:PPTA:1,2017-02-01T08:30:00Z,30.2791,-87.5561,76.79,1111122 
DISL,ioos:station:DISL:PPTA:1,2017-02-01T09:00:00Z,30.2791,-87.5561,78.02,1111122 
DISL,ioos:station:DISL:PPTA:1,2017-02-01T09:30:00Z,30.2791,-87.5561,79.08,1111122 
DISL,ioos:station:DISL:PPTA:1,2017-02-01T10:00:00Z,30.2791,-87.5561,79.66,1111122 
DISL,ioos:station:DISL:PPTA:1,2017-02-01T10:30:00Z,30.2791,-87.5561,79.19,1111122 
DISL,ioos:station:DISL:PPTA:1,2017-02-01T11:00:00Z,30.2791,-87.5561,88.4,1111122 
DISL,ioos:station:DISL:PPTA:1,2017-02-01T11:30:00Z,30.2791,-87.5561,93.0,1111122 
DISL,ioos:station:DISL:PPTA:1,2017-02-01T12:00:00Z,30.2791,-87.5561,95.5,1111122 
DISL,ioos:station:DISL:PPTA:1,2017-02-01T12:30:00Z,30.2791,-87.5561,97.5,1111122 
DISL,ioos:station:DISL:PPTA:1,2017-02-01T13:00:00Z,30.2791,-87.5561,97.7,1111122 
DISL,ioos:station:DISL:PPTA:1,2017-02-01T13:30:00Z,30.2791,-87.5561,90.4,1111122 
DISL,ioos:station:DISL:PPTA:1,2017-02-01T14:00:00Z,30.2791,-87.5561,86.0,1111122 
DISL,ioos:station:DISL:PPTA:1,2017-02-01T14:30:00Z,30.2791,-87.5561,86.5,1111122 
DISL,ioos:station:DISL:PPTA:1,2017-02-01T15:00:00Z,30.2791,-87.5561,88.4,1111122 
DISL,ioos:station:DISL:PPTA:1,2017-02-01T15:30:00Z,30.2791,-87.5561,85.6,1111122 
DISL,ioos:station:DISL:PPTA:1,2017-02-01T16:00:00Z,30.2791,-87.5561,85.9,1111122 
DISL,ioos:station:DISL:PPTA:1,2017-02-01T16:30:00Z,30.2791,-87.5561,73.38,1111122 
DISL,ioos:station:DISL:PPTA:1,2017-02-01T17:00:00Z,30.2791,-87.5561,67.14,1111122 
DISL,ioos:station:DISL:PPTA:1,2017-02-01T17:30:00Z,30.2791,-87.5561,71.21,1111122 
DISL,ioos:station:DISL:PPTA:1,2017-02-01T18:00:00Z,30.2791,-87.5561,67.71,1111122 
DISL,ioos:station:DISL:PPTA:1,2017-02-01T18:30:00Z,30.2791,-87.5561,66.18,1111122 
DISL,ioos:station:DISL:PPTA:1,2017-02-01T19:00:00Z,30.2791,-87.5561,65.94,1111122 
DISL,ioos:station:DISL:PPTA:1,2017-02-01T19:30:00Z,30.2791,-87.5561,62.48,1111122 
DISL,ioos:station:DISL:PPTA:1,2017-02-01T20:00:00Z,30.2791,-87.5561,60.71,1111122 
DISL,ioos:station:DISL:PPTA:1,2017-02-01T20:30:00Z,30.2791,-87.5561,58.92,1111122 
DISL,ioos:station:DISL:PPTA:1,2017-02-01T21:00:00Z,30.2791,-87.5561,60.32,1111122 
DISL,ioos:station:DISL:PPTA:1,2017-02-01T21:30:00Z,30.2791,-87.5561,61.63,1111122 
DISL,ioos:station:DISL:PPTA:1,2017-02-01T22:00:00Z,30.2791,-87.5561,59.59,1111122 
DISL,ioos:station:DISL:PPTA:1,2017-02-01T22:30:00Z,30.2791,-87.5561,62.42,1111122 
DISL,ioos:station:DISL:PPTA:1,2017-02-01T23:00:00Z,30.2791,-87.5561,65.12,1111122 
DISL,ioos:station:DISL:PPTA:1,2017-02-01T23:30:00Z,30.2791,-87.5561,71.74,1111122 
DISL,ioos:station:DISL:PPTA:1,2017-02-02T00:00:00Z,30.2791,-87.5561,71.27,1111122 
DISL,ioos:station:DISL:PPTA:1,2017-02-02T00:30:00Z,30.2791,-87.5561,73.97,1111122 
DISL,ioos:station:DISL:PPTA:1,2017-02-02T01:00:00Z,30.2791,-87.5561,77.47,1111122 
DISL,ioos:station:DISL:PPTA:1,2017-02-02T01:30:00Z,30.2791,-87.5561,76.51,1111122 
DISL,ioos:station:DISL:PPTA:1,2017-02-02T02:00:00Z,30.2791,-87.5561,80.1,1111122 
DISL,ioos:station:DISL:PPTA:1,2017-02-02T02:30:00Z,30.2791,-87.5561,82.4,1111122 
DISL,ioos:station:DISL:PPTA:1,2017-02-02T03:00:00Z,30.2791,-87.5561,77.79,1111122 
DISL,ioos:station:DISL:PPTA:1,2017-02-02T03:30:00Z,30.2791,-87.5561,82.6,1111122 
DISL,ioos:station:DISL:PPTA:1,2017-02-02T04:00:00Z,30.2791,-87.5561,83.0,1111122 
DISL,ioos:station:DISL:PPTA:1,2017-02-02T04:30:00Z,30.2791,-87.5561,82.6,1111122 
DISL,ioos:station:DISL:PPTA:1,2017-02-02T05:00:00Z,30.2791,-87.5561,82.4,1111122 
DISL,ioos:station:DISL:PPTA:1,2017-02-02T05:30:00Z,30.2791,-87.5561,83.8,1111122 
DISL,ioos:station:DISL:PPTA:1,2017-02-02T06:00:00Z,30.2791,-87.5561,85.0,1111122 
DISL,ioos:station:DISL:PPTA:1,2017-02-02T06:30:00Z,30.2791,-87.5561,83.5,1111122 
DISL,ioos:station:DISL:PPTA:1,2017-02-02T07:00:00Z,30.2791,-87.5561,89.6,1111122 
DISL,ioos:station:DISL:PPTA:1,2017-02-02T07:30:00Z,30.2791,-87.5561,95.3,1111122 
DISL,ioos:station:DISL:PPTA:1,2017-02-02T08:00:00Z,30.2791,-87.5561,96.9,1111122 
DISL,ioos:station:DISL:PPTA:1,2017-02-02T08:30:00Z,30.2791,-87.5561,97.8,1111122 
DISL,ioos:station:DISL:PPTA:1,2017-02-02T09:00:00Z,30.2791,-87.5561,98.7,1111122 
DISL,ioos:station:DISL:PPTA:1,2017-02-02T09:30:00Z,30.2791,-87.5561,99.0,1111122 
DISL,ioos:station:DISL:PPTA:1,2017-02-02T10:00:00Z,30.2791,-87.5561,99.3,1111122 
DISL,ioos:station:DISL:PPTA:1,2017-02-02T10:30:00Z,30.2791,-87.5561,99.3,1111122 
DISL,ioos:station:DISL:PPTA:1,2017-02-02T11:00:00Z,30.2791,-87.5561,99.3,1111122 
DISL,ioos:station:DISL:PPTA:1,2017-02-02T11:30:00Z,30.2791,-87.5561,99.3,1111122 
DISL,ioos:station:DISL:PPTA:1,2017-02-02T12:00:00Z,30.2791,-87.5561,99.3,1111122 
DISL,ioos:station:DISL:PPTA:1,2017-02-02T12:30:00Z,30.2791,-87.5561,99.3,1111122 
DISL,ioos:station:DISL:PPTA:1,2017-02-02T13:00:00Z,30.2791,-87.5561,99.3,1111122 
DISL,ioos:station:DISL:PPTA:1,2017-02-02T13:30:00Z,30.2791,-87.5561,97.5,1111122 
DISL,ioos:station:DISL:PPTA:1,2017-02-02T14:00:00Z,30.2791,-87.5561,90.5,1111122 
DISL,ioos:station:DISL:PPTA:1,2017-02-02T14:30:00Z,30.2791,-87.5561,81.0,1111122 
DISL,ioos:station:DISL:PPTA:1,2017-02-02T15:00:00Z,30.2791,-87.5561,82.7,1111122 
DISL,ioos:station:DISL:PPTA:1,2017-02-02T15:30:00Z,30.2791,-87.5561,81.2,1111122 
DISL,ioos:station:DISL:PPTA:1,2017-02-02T16:00:00Z,30.2791,-87.5561,81.1,1111122 
DISL,ioos:station:DISL:PPTA:1,2017-02-02T16:30:00Z,30.2791,-87.5561,79.71,1111122 
DISL,ioos:station:DISL:PPTA:1,2017-02-02T17:00:00Z,30.2791,-87.5561,81.9,1111122 
DISL,ioos:station:DISL:PPTA:1,2017-02-02T17:30:00Z,30.2791,-87.5561,76.19,1111122 
DISL,ioos:station:DISL:PPTA:1,2017-02-02T18:00:00Z,30.2791,-87.5561,78.56,1111122 
DISL,ioos:station:DISL:PPTA:1,2017-02-02T18:30:00Z,30.2791,-87.5561,62.06,1111122 
DISL,ioos:station:DISL:PPTA:1,2017-02-02T19:00:00Z,30.2791,-87.5561,72.69,1111122 
DISL,ioos:station:DISL:PPTA:1,2017-02-02T19:30:00Z,30.2791,-87.5561,67.56,1111122 
DISL,ioos:station:DISL:PPTA:1,2017-02-02T20:00:00Z,30.2791,-87.5561,66.89,1111122 
DISL,ioos:station:DISL:PPTA:1,2017-02-02T20:30:00Z,30.2791,-87.5561,66.8,1111122 
DISL,ioos:station:DISL:PPTA:1,2017-02-02T21:00:00Z,30.2791,-87.5561,67.59,1111122 
DISL,ioos:station:DISL:PPTA:1,2017-02-02T21:30:00Z,30.2791,-87.5561,71.11,1111122 
DISL,ioos:station:DISL:PPTA:1,2017-02-02T22:00:00Z,30.2791,-87.5561,69.69,1111122 
DISL,ioos:station:DISL:PPTA:1,2017-02-02T22:30:00Z,30.2791,-87.5561,70.65,1111122 
DISL,ioos:station:DISL:PPTA:1,2017-02-02T23:00:00Z,30.2791,-87.5561,73.14,1111122 
DISL,ioos:station:DISL:PPTA:1,2017-02-02T23:30:00Z,30.2791,-87.5561,75.94,1111122 
DISL,ioos:station:DISL:PPTA:1,2017-02-03T00:00:00Z,30.2791,-87.5561,78.61,1111122 
DISL,ioos:station:DISL:PPTA:1,2017-02-03T00:30:00Z,30.2791,-87.5561,79.24,1111122 
DISL,ioos:station:DISL:PPTA:1,2017-02-03T01:00:00Z,30.2791,-87.5561,79.82,1111122 
DISL,ioos:station:DISL:PPTA:1,2017-02-03T01:30:00Z,30.2791,-87.5561,83.2,1111122 
DISL,ioos:station:DISL:PPTA:1,2017-02-03T02:00:00Z,30.2791,-87.5561,80.9,1111122 
DISL,ioos:station:DISL:PPTA:1,2017-02-03T02:30:00Z,30.2791,-87.5561,81.8,1111122 
DISL,ioos:station:DISL:PPTA:1,2017-02-03T03:00:00Z,30.2791,-87.5561,83.0,1111122 
DISL,ioos:station:DISL:PPTA:1,2017-02-03T03:30:00Z,30.2791,-87.5561,80.6,1111122 
DISL,ioos:station:DISL:PPTA:1,2017-02-03T04:00:00Z,30.2791,-87.5561,79.3,1111122 
DISL,ioos:station:DISL:PPTA:1,2017-02-03T04:30:00Z,30.2791,-87.5561,81.4,1111122 
DISL,ioos:station:DISL:PPTA:1,2017-02-03T05:00:00Z,30.2791,-87.5561,81.9,1111122 
DISL,ioos:station:DISL:PPTA:1,2017-02-03T05:30:00Z,30.2791,-87.5561,81.8,1111122 
DISL,ioos:station:DISL:PPTA:1,2017-02-03T06:00:00Z,30.2791,-87.5561,91.1,1111122 
DISL,ioos:station:DISL:PPTA:1,2017-02-03T06:30:00Z,30.2791,-87.5561,94.9,1111122 
DISL,ioos:station:DISL:PPTA:1,2017-02-03T07:00:00Z,30.2791,-87.5561,96.2,1111122 
DISL,ioos:station:DISL:PPTA:1,2017-02-03T07:30:00Z,30.2791,-87.5561,97.7,1111122 
DISL,ioos:station:DISL:PPTA:1,2017-02-03T08:00:00Z,30.2791,-87.5561,98.1,1111122 
DISL,ioos:station:DISL:PPTA:1,2017-02-03T08:30:00Z,30.2791,-87.5561,98.7,1111122 
DISL,ioos:station:DISL:PPTA:1,2017-02-03T09:00:00Z,30.2791,-87.5561,99.3,1111122 
DISL,ioos:station:DISL:PPTA:1,2017-02-03T09:30:00Z,30.2791,-87.5561,99.3,1111122 
DISL,ioos:station:DISL:PPTA:1,2017-02-03T10:00:00Z,30.2791,-87.5561,99.3,1111122 
DISL,ioos:station:DISL:PPTA:1,2017-02-03T10:30:00Z,30.2791,-87.5561,99.3,1111122 
DISL,ioos:station:DISL:PPTA:1,2017-02-03T11:00:00Z,30.2791,-87.5561,99.3,1111122 
DISL,ioos:station:DISL:PPTA:1,2017-02-03T11:30:00Z,30.2791,-87.5561,99.2,1111122 
DISL,ioos:station:DISL:PPTA:1,2017-02-03T12:00:00Z,30.2791,-87.5561,99.3,1111122 
DISL,ioos:station:DISL:PPTA:1,2017-02-03T12:30:00Z,30.2791,-87.5561,99.3,1111122 
DISL,ioos:station:DISL:PPTA:1,2017-02-03T13:00:00Z,30.2791,-87.5561,99.3,1111122 
DISL,ioos:station:DISL:PPTA:1,2017-02-03T13:30:00Z,30.2791,-87.5561,99.2,1111122 
DISL,ioos:station:DISL:PPTA:1,2017-02-03T14:00:00Z,30.2791,-87.5561,99.3,1111122 
DISL,ioos:station:DISL:PPTA:1,2017-02-03T14:30:00Z,30.2791,-87.5561,99.3,1111122 
DISL,ioos:station:DISL:PPTA:1,2017-02-03T15:00:00Z,30.2791,-87.5561,99.3,1111122 
DISL,ioos:station:DISL:PPTA:1,2017-02-03T15:30:00Z,30.2791,-87.5561,99.3,1111122 
DISL,ioos:station:DISL:PPTA:1,2017-02-03T16:00:00Z,30.2791,-87.5561,99.3,1111122 
DISL,ioos:station:DISL:PPTA:1,2017-02-03T16:30:00Z,30.2791,-87.5561,99.3,1111122 
DISL,ioos:station:DISL:PPTA:1,2017-02-03T17:00:00Z,30.2791,-87.5561,99.3,1111122 
DISL,ioos:station:DISL:PPTA:1,2017-02-03T17:30:00Z,30.2791,-87.5561,99.3,1111122 
DISL,ioos:station:DISL:PPTA:1,2017-02-03T18:00:00Z,30.2791,-87.5561,98.5,1111122 
DISL,ioos:station:DISL:PPTA:1,2017-02-03T18:30:00Z,30.2791,-87.5561,95.0,1111122 
DISL,ioos:station:DISL:PPTA:1,2017-02-03T19:00:00Z,30.2791,-87.5561,90.0,1111122 
DISL,ioos:station:DISL:PPTA:1,2017-02-03T19:30:00Z,30.2791,-87.5561,85.0,1111122 
DISL,ioos:station:DISL:PPTA:1,2017-02-03T20:00:00Z,30.2791,-87.5561,77.12,1111122 
DISL,ioos:station:DISL:PPTA:1,2017-02-03T20:30:00Z,30.2791,-87.5561,75.17,1111122 
DISL,ioos:station:DISL:PPTA:1,2017-02-03T21:00:00Z,30.2791,-87.5561,72.75,1111122 
DISL,ioos:station:DISL:PPTA:1,2017-02-03T21:30:00Z,30.2791,-87.5561,75.82,1111122 
DISL,ioos:station:DISL:PPTA:1,2017-02-03T22:00:00Z,30.2791,-87.5561,76.65,1111122 
DISL,ioos:station:DISL:PPTA:1,2017-02-03T22:30:00Z,30.2791,-87.5561,75.76,1111122 
DISL,ioos:station:DISL:PPTA:1,2017-02-03T23:00:00Z,30.2791,-87.5561,78.85,1111122 
DISL,ioos:station:DISL:PPTA:1,2017-02-03T23:30:00Z,30.2791,-87.5561,81.2,1111122 
DISL,ioos:station:DISL:PPTA:1,2017-02-04T00:00:00Z,30.2791,-87.5561,82.9,1111122 
DISL,ioos:station:DISL:PPTA:1,2017-02-04T00:30:00Z,30.2791,-87.5561,80.7,1111122 
DISL,ioos:station:DISL:PPTA:1,2017-02-04T01:00:00Z,30.2791,-87.5561,82.4,1111122 
DISL,ioos:station:DISL:PPTA:1,2017-02-04T01:30:00Z,30.2791,-87.5561,82.1,1111122 
DISL,ioos:station:DISL:PPTA:1,2017-02-04T02:00:00Z,30.2791,-87.5561,83.3,1111122 
DISL,ioos:station:DISL:PPTA:1,2017-02-04T02:30:00Z,30.2791,-87.5561,85.6,1111122 
DISL,ioos:station:DISL:PPTA:1,2017-02-04T03:00:00Z,30.2791,-87.5561,87.6,1111122 
DISL,ioos:station:DISL:PPTA:1,2017-02-04T03:30:00Z,30.2791,-87.5561,87.8,1111122 
DISL,ioos:station:DISL:PPTA:1,2017-02-04T04:00:00Z,30.2791,-87.5561,86.7,1111122 
DISL,ioos:station:DISL:PPTA:1,2017-02-04T04:30:00Z,30.2791,-87.5561,85.1,1111122 
DISL,ioos:station:DISL:PPTA:1,2017-02-04T05:00:00Z,30.2791,-87.5561,84.8,1111122 
DISL,ioos:station:DISL:PPTA:1,2017-02-04T05:30:00Z,30.2791,-87.5561,82.8,1111122 
DISL,ioos:station:DISL:PPTA:1,2017-02-04T06:00:00Z,30.2791,-87.5561,77.15,1111122 
DISL,ioos:station:DISL:PPTA:1,2017-02-04T06:30:00Z,30.2791,-87.5561,77.27,1111122 
DISL,ioos:station:DISL:PPTA:1,2017-02-04T07:00:00Z,30.2791,-87.5561,76.72,1111122 
DISL,ioos:station:DISL:PPTA:1,2017-02-04T07:30:00Z,30.2791,-87.5561,73.75,1111122 
DISL,ioos:station:DISL:PPTA:1,2017-02-04T08:00:00Z,30.2791,-87.5561,75.63,1111122 
DISL,ioos:station:DISL:PPTA:1,2017-02-04T08:30:00Z,30.2791,-87.5561,74.89,1111122 
DISL,ioos:station:DISL:PPTA:1,2017-02-04T09:00:00Z,30.2791,-87.5561,71.38,1111122 
DISL,ioos:station:DISL:PPTA:1,2017-02-04T09:30:00Z,30.2791,-87.5561,64.06,1111122 
DISL,ioos:station:DISL:PPTA:1,2017-02-04T10:00:00Z,30.2791,-87.5561,60.91,1111122 
DISL,ioos:station:DISL:PPTA:1,2017-02-04T10:30:00Z,30.2791,-87.5561,64.54,1111122 
DISL,ioos:station:DISL:PPTA:1,2017-02-04T11:00:00Z,30.2791,-87.5561,65.09,1111122 
DISL,ioos:station:DISL:PPTA:1,2017-02-04T11:30:00Z,30.2791,-87.5561,65.62,1111122 
DISL,ioos:station:DISL:PPTA:1,2017-02-04T12:00:00Z,30.2791,-87.5561,66.61,1111122 
DISL,ioos:station:DISL:PPTA:1,2017-02-04T12:30:00Z,30.2791,-87.5561,62.16,1111122 
DISL,ioos:station:DISL:PPTA:1,2017-02-04T13:00:00Z,30.2791,-87.5561,63.12,1111122 
DISL,ioos:station:DISL:PPTA:1,2017-02-04T13:30:00Z,30.2791,-87.5561,60.35,1111122 
DISL,ioos:station:DISL:PPTA:1,2017-02-04T14:00:00Z,30.2791,-87.5561,56.82,1111122 
DISL,ioos:station:DISL:PPTA:1,2017-02-04T14:30:00Z,30.2791,-87.5561,51.37,1111122 
DISL,ioos:station:DISL:PPTA:1,2017-02-04T15:00:00Z,30.2791,-87.5561,46.43,1111122 
DISL,ioos:station:DISL:PPTA:1,2017-02-04T15:30:00Z,30.2791,-87.5561,46.73,1111122 
DISL,ioos:station:DISL:PPTA:1,2017-02-04T16:00:00Z,30.2791,-87.5561,45.69,1111122 
DISL,ioos:station:DISL:PPTA:1,2017-02-04T16:30:00Z,30.2791,-87.5561,40.96,1111122 
DISL,ioos:station:DISL:PPTA:1,2017-02-04T17:00:00Z,30.2791,-87.5561,36.37,1111122 
DISL,ioos:station:DISL:PPTA:1,2017-02-04T17:30:00Z,30.2791,-87.5561,35.27,1111122 
DISL,ioos:station:DISL:PPTA:1,2017-02-04T18:00:00Z,30.2791,-87.5561,35.4,1111122 
DISL,ioos:station:DISL:PPTA:1,2017-02-04T18:30:00Z,30.2791,-87.5561,34.99,1111122 
DISL,ioos:station:DISL:PPTA:1,2017-02-04T19:00:00Z,30.2791,-87.5561,37.65,1111122 
DISL,ioos:station:DISL:PPTA:1,2017-02-04T19:30:00Z,30.2791,-87.5561,38.98,1111122 
DISL,ioos:station:DISL:PPTA:1,2017-02-04T20:00:00Z,30.2791,-87.5561,36.42,1111122 
DISL,ioos:station:DISL:PPTA:1,2017-02-04T20:30:00Z,30.2791,-87.5561,38.85,1111122 
DISL,ioos:station:DISL:PPTA:1,2017-02-04T21:00:00Z,30.2791,-87.5561,41.08,1111122 
DISL,ioos:station:DISL:PPTA:1,2017-02-04T21:30:00Z,30.2791,-87.5561,40.98,1111122 
DISL,ioos:station:DISL:PPTA:1,2017-02-04T22:00:00Z,30.2791,-87.5561,38.55,1111122 
DISL,ioos:station:DISL:PPTA:1,2017-02-04T22:30:00Z,30.2791,-87.5561,39.03,1111122 
DISL,ioos:station:DISL:PPTA:1,2017-02-04T23:00:00Z,30.2791,-87.5561,41.12,1111122 
DISL,ioos:station:DISL:PPTA:1,2017-02-04T23:30:00Z,30.2791,-87.5561,44.85,1111122 
DISL,ioos:station:DISL:PPTA:1,2017-02-05T00:00:00Z,30.2791,-87.5561,44.71,1111122 
DISL,ioos:station:DISL:PPTA:1,2017-02-05T00:30:00Z,30.2791,-87.5561,59.83,1111122 
DISL,ioos:station:DISL:PPTA:1,2017-02-05T01:00:00Z,30.2791,-87.5561,57.06,1111122 
DISL,ioos:station:DISL:PPTA:1,2017-02-05T01:30:00Z,30.2791,-87.5561,62.06,1111122 
DISL,ioos:station:DISL:PPTA:1,2017-02-05T02:00:00Z,30.2791,-87.5561,68.25,1111122 
DISL,ioos:station:DISL:PPTA:1,2017-02-05T02:30:00Z,30.2791,-87.5561,69.63,1111122 
DISL,ioos:station:DISL:PPTA:1,2017-02-05T03:00:00Z,30.2791,-87.5561,73.29,1111122 
DISL,ioos:station:DISL:PPTA:1,2017-02-05T03:30:00Z,30.2791,-87.5561,71.0,1111122 
DISL,ioos:station:DISL:PPTA:1,2017-02-05T04:00:00Z,30.2791,-87.5561,76.37,1111122 
DISL,ioos:station:DISL:PPTA:1,2017-02-05T04:30:00Z,30.2791,-87.5561,75.79,1111122 
DISL,ioos:station:DISL:PPTA:1,2017-02-05T05:00:00Z,30.2791,-87.5561,86.0,1111122 
DISL,ioos:station:DISL:PPTA:1,2017-02-05T05:30:00Z,30.2791,-87.5561,68.48,1111122 
DISL,ioos:station:DISL:PPTA:1,2017-02-05T06:00:00Z,30.2791,-87.5561,78.49,1111122 
DISL,ioos:station:DISL:PPTA:1,2017-02-05T06:30:00Z,30.2791,-87.5561,72.47,1111122 
DISL,ioos:station:DISL:PPTA:1,2017-02-05T07:00:00Z,30.2791,-87.5561,70.62,1111122 
DISL,ioos:station:DISL:PPTA:1,2017-02-05T07:30:00Z,30.2791,-87.5561,71.14,1111122 
DISL,ioos:station:DISL:PPTA:1,2017-02-05T08:00:00Z,30.2791,-87.5561,74.18,1111122 
DISL,ioos:station:DISL:PPTA:1,2017-02-05T08:30:00Z,30.2791,-87.5561,83.3,1111122 
DISL,ioos:station:DISL:PPTA:1,2017-02-05T09:00:00Z,30.2791,-87.5561,83.8,1111122 
DISL,ioos:station:DISL:PPTA:1,2017-02-05T09:30:00Z,30.2791,-87.5561,82.3,1111122 
DISL,ioos:station:DISL:PPTA:1,2017-02-05T10:00:00Z,30.2791,-87.5561,87.5,1111122 
DISL,ioos:station:DISL:PPTA:1,2017-02-05T10:30:00Z,30.2791,-87.5561,88.7,1111122 
DISL,ioos:station:DISL:PPTA:1,2017-02-05T11:00:00Z,30.2791,-87.5561,89.0,1111122 
DISL,ioos:station:DISL:PPTA:1,2017-02-05T11:30:00Z,30.2791,-87.5561,86.7,1111122 
DISL,ioos:station:DISL:PPTA:1,2017-02-05T12:00:00Z,30.2791,-87.5561,88.0,1111122 
DISL,ioos:station:DISL:PPTA:1,2017-02-05T12:30:00Z,30.2791,-87.5561,88.1,1111122 
DISL,ioos:station:DISL:PPTA:1,2017-02-05T13:00:00Z,30.2791,-87.5561,90.4,1111122 
DISL,ioos:station:DISL:PPTA:1,2017-02-05T13:30:00Z,30.2791,-87.5561,87.5,1111122 
DISL,ioos:station:DISL:PPTA:1,2017-02-05T14:00:00Z,30.2791,-87.5561,84.9,1111122 
DISL,ioos:station:DISL:PPTA:1,2017-02-05T14:30:00Z,30.2791,-87.5561,78.42,1111122 
DISL,ioos:station:DISL:PPTA:1,2017-02-05T15:00:00Z,30.2791,-87.5561,71.41,1111122 
DISL,ioos:station:DISL:PPTA:1,2017-02-05T15:30:00Z,30.2791,-87.5561,69.91,1111122 
DISL,ioos:station:DISL:PPTA:1,2017-02-05T16:00:00Z,30.2791,-87.5561,62.88,1111122 
DISL,ioos:station:DISL:PPTA:1,2017-02-05T16:30:00Z,30.2791,-87.5561,60.4,1111122 
DISL,ioos:station:DISL:PPTA:1,2017-02-05T17:00:00Z,30.2791,-87.5561,57.89,1111122 
DISL,ioos:station:DISL:PPTA:1,2017-02-05T17:30:00Z,30.2791,-87.5561,57.44,1111122 
DISL,ioos:station:DISL:PPTA:1,2017-02-05T18:00:00Z,30.2791,-87.5561,60.1,1111122 
DISL,ioos:station:DISL:PPTA:1,2017-02-05T18:30:00Z,30.2791,-87.5561,64.5,1111122 
DISL,ioos:station:DISL:PPTA:1,2017-02-05T19:00:00Z,30.2791,-87.5561,61.6,1111122 
DISL,ioos:station:DISL:PPTA:1,2017-02-05T19:30:00Z,30.2791,-87.5561,61.4,1111122 
DISL,ioos:station:DISL:PPTA:1,2017-02-05T20:00:00Z,30.2791,-87.5561,60.83,1111122 
DISL,ioos:station:DISL:PPTA:1,2017-02-05T20:30:00Z,30.2791,-87.5561,61.93,1111122 
DISL,ioos:station:DISL:PPTA:1,2017-02-05T21:00:00Z,30.2791,-87.5561,64.13,1111122 
DISL,ioos:station:DISL:PPTA:1,2017-02-05T21:30:00Z,30.2791,-87.5561,64.03,1111122 
DISL,ioos:station:DISL:PPTA:1,2017-02-05T22:00:00Z,30.2791,-87.5561,63.93,1111122 
DISL,ioos:station:DISL:PPTA:1,2017-02-05T22:30:00Z,30.2791,-87.5561,66.19,1111122 
DISL,ioos:station:DISL:PPTA:1,2017-02-05T23:00:00Z,30.2791,-87.5561,69.34,1111122 
DISL,ioos:station:DISL:PPTA:1,2017-02-05T23:30:00Z,30.2791,-87.5561,74.77,1111122 
DISL,ioos:station:DISL:PPTA:1,2017-02-06T00:00:00Z,30.2791,-87.5561,78.4,1111122 
DISL,ioos:station:DISL:PPTA:1,2017-02-06T00:30:00Z,30.2791,-87.5561,79.27,1111122 
DISL,ioos:station:DISL:PPTA:1,2017-02-06T01:00:00Z,30.2791,-87.5561,80.7,1111122 
DISL,ioos:station:DISL:PPTA:1,2017-02-06T01:30:00Z,30.2791,-87.5561,81.6,1111122 
DISL,ioos:station:DISL:PPTA:1,2017-02-06T02:00:00Z,30.2791,-87.5561,83.8,1111122 
DISL,ioos:station:DISL:PPTA:1,2017-02-06T02:30:00Z,30.2791,-87.5561,83.5,1111122 
DISL,ioos:station:DISL:PPTA:1,2017-02-06T03:00:00Z,30.2791,-87.5561,86.9,1111122 
DISL,ioos:station:DISL:PPTA:1,2017-02-06T03:30:00Z,30.2791,-87.5561,85.7,1111122 
DISL,ioos:station:DISL:PPTA:1,2017-02-06T04:00:00Z,30.2791,-87.5561,86.4,1111122 
DISL,ioos:station:DISL:PPTA:1,2017-02-06T04:30:00Z,30.2791,-87.5561,88.3,1111122 
DISL,ioos:station:DISL:PPTA:1,2017-02-06T05:00:00Z,30.2791,-87.5561,89.6,1111122 
DISL,ioos:station:DISL:PPTA:1,2017-02-06T05:30:00Z,30.2791,-87.5561,90.2,1111122 
DISL,ioos:station:DISL:PPTA:1,2017-02-06T06:00:00Z,30.2791,-87.5561,89.7,1111122 
DISL,ioos:station:DISL:PPTA:1,2017-02-06T06:30:00Z,30.2791,-87.5561,90.5,1111122 
DISL,ioos:station:DISL:PPTA:1,2017-02-06T07:00:00Z,30.2791,-87.5561,92.6,1111122 
DISL,ioos:station:DISL:PPTA:1,2017-02-06T07:30:00Z,30.2791,-87.5561,93.7,1111122 
DISL,ioos:station:DISL:PPTA:1,2017-02-06T08:00:00Z,30.2791,-87.5561,95.2,1111122 
DISL,ioos:station:DISL:PPTA:1,2017-02-06T08:30:00Z,30.2791,-87.5561,95.1,1111122 
DISL,ioos:station:DISL:PPTA:1,2017-02-06T09:00:00Z,30.2791,-87.5561,96.8,1111122 
DISL,ioos:station:DISL:PPTA:1,2017-02-06T09:30:00Z,30.2791,-87.5561,97.4,1111122 
DISL,ioos:station:DISL:PPTA:1,2017-02-06T10:00:00Z,30.2791,-87.5561,97.8,1111122 
DISL,ioos:station:DISL:PPTA:1,2017-02-06T10:30:00Z,30.2791,-87.5561,98.7,1111122 
DISL,ioos:station:DISL:PPTA:1,2017-02-06T11:00:00Z,30.2791,-87.5561,99.3,1111122 
DISL,ioos:station:DISL:PPTA:1,2017-02-06T11:30:00Z,30.2791,-87.5561,99.3,1111122 
DISL,ioos:station:DISL:PPTA:1,2017-02-06T12:00:00Z,30.2791,-87.5561,99.3,1111122 
DISL,ioos:station:DISL:PPTA:1,2017-02-06T12:30:00Z,30.2791,-87.5561,99.3,1111122 
DISL,ioos:station:DISL:PPTA:1,2017-02-06T13:00:00Z,30.2791,-87.5561,99.3,1111122 
DISL,ioos:station:DISL:PPTA:1,2017-02-06T13:30:00Z,30.2791,-87.5561,98.2,1111122 
DISL,ioos:station:DISL:PPTA:1,2017-02-06T14:00:00Z,30.2791,-87.5561,95.5,1111122 
DISL,ioos:station:DISL:PPTA:1,2017-02-06T14:30:00Z,30.2791,-87.5561,93.0,1111122 
DISL,ioos:station:DISL:PPTA:1,2017-02-06T15:00:00Z,30.2791,-87.5561,94.6,1111122 
DISL,ioos:station:DISL:PPTA:1,2017-02-06T15:30:00Z,30.2791,-87.5561,94.5,1111122 
DISL,ioos:station:DISL:PPTA:1,2017-02-06T16:00:00Z,30.2791,-87.5561,92.9,1111122 
DISL,ioos:station:DISL:PPTA:1,2017-02-06T16:30:00Z,30.2791,-87.5561,93.2,1111122 
DISL,ioos:station:DISL:PPTA:1,2017-02-06T17:00:00Z,30.2791,-87.5561,93.4,1111122 
DISL,ioos:station:DISL:PPTA:1,2017-02-06T17:30:00Z,30.2791,-87.5561,97.4,1111122 
DISL,ioos:station:DISL:PPTA:1,2017-02-06T18:00:00Z,30.2791,-87.5561,98.9,1111122 
DISL,ioos:station:DISL:PPTA:1,2017-02-06T18:30:00Z,30.2791,-87.5561,99.3,1111122 
DISL,ioos:station:DISL:PPTA:1,2017-02-06T19:00:00Z,30.2791,-87.5561,99.3,1111122 
DISL,ioos:station:DISL:PPTA:1,2017-02-06T19:30:00Z,30.2791,-87.5561,99.3,1111122 
DISL,ioos:station:DISL:PPTA:1,2017-02-06T20:00:00Z,30.2791,-87.5561,99.3,1111122 
DISL,ioos:station:DISL:PPTA:1,2017-02-06T20:30:00Z,30.2791,-87.5561,97.6,1111122 
DISL,ioos:station:DISL:PPTA:1,2017-02-06T21:00:00Z,30.2791,-87.5561,98.5,1111122 
DISL,ioos:station:DISL:PPTA:1,2017-02-06T21:30:00Z,30.2791,-87.5561,96.3,1111122 
DISL,ioos:station:DISL:PPTA:1,2017-02-06T22:00:00Z,30.2791,-87.5561,95.8,1111122 
DISL,ioos:station:DISL:PPTA:1,2017-02-06T22:30:00Z,30.2791,-87.5561,95.1,1111122 
DISL,ioos:station:DISL:PPTA:1,2017-02-06T23:00:00Z,30.2791,-87.5561,96.4,1111122 
DISL,ioos:station:DISL:PPTA:1,2017-02-06T23:30:00Z,30.2791,-87.5561,98.0,1111122 
DISL,ioos:station:DISL:PPTA:1,2017-02-07T00:00:00Z,30.2791,-87.5561,98.4,1111122 
DISL,ioos:station:DISL:PPTA:1,2017-02-07T00:30:00Z,30.2791,-87.5561,98.4,1111122 